Regional Weather Roundup
Issued by NWS

Home | Current Version | Previous Version | Text Only | Print | Product List | Glossary On
Versions: 1 2 3 4 5 6 7 8 9 10 11 12 13 14 15 16 17 18 19 20 21 22 23 24 25 26 27 28 29 30 31 32 33 34 35 36 37 38 39 40 41 42 43 44 45 46 47 48 49 50
000
ASUS43 KDTX 292010
RWRMI
MICHIGAN HOURLY REGIONAL WEATHER ROUNDUP
NATIONAL WEATHER SERVICE DETROIT/PONTIAC MI
400 PM EDT FRI JUL 29 2016

NOTE: "FAIR" INDICATES FEW OR NO CLOUDS BELOW 12,000 FEET WITH NO
SIGNIFICANT WEATHER AND/OR OBSTRUCTION TO VISIBILITY.

MIZ047>049-052>055-059>063-066>070-074>076-081>083-292100-
SOUTHEAST LOWER MICHIGAN

CITY           SKY/WX    TMP DP  RH WIND       PRES   REMARKS
ADRIAN         CLOUDY    82  68  62 N8        29.93F
ALMA           CLOUDY    72  68  87 NE9       30.01S
ANN ARBOR      CLOUDY    82  69  64 N8        29.93F
BAD AXE        CLOUDY    72  58  60 NE10G18   30.04S
CARO           CLOUDY    76  57  51 NE10G18   30.00F
DETROIT CITY   PTSUNNY   77  65  66 NE12      29.95F
DETROIT        CLOUDY    79  66  64 NE9G17    29.95S
FLINT          PTSUNNY   83  56  39 NE15      29.99S
GROSSE ILE     CLOUDY    72  68  86 NE12      29.93F
HILLSDALE      CLOUDY    76  70  80 N7        29.95S
HOWELL         PTSUNNY   81  61  49 NE9       29.96F

CITY           SKY/WX    TMP DP  RH WIND       PRES   REMARKS
JACKSON        CLOUDY    80  68  66 N13       29.94F
LAMBERTVILLE   CLOUDY    77  65  67 S14       29.93R
LANSING        MOSUNNY   78  61  55 NE17G25   29.97F
LAPEER         FAIR      78  55  44 NE10G20   30.00S
MASON          CLOUDY    79  64  59 NE13G22   29.96F
MONROE         CLOUDY    77  69  74 NE10G17   29.92S
MT. CLEMENS    PTSUNNY   80  65  60 E13       29.94F
PONTIAC        CLOUDY    81  63  54 NE14G21   29.95F
PORT HOPE        N/A     71  60  68 NE16      30.02F
PORT HURON     CLOUDY    77  64  65 NE13G20   29.98F
TRI CITIES     CLOUDY    72  64  76 NE16      30.01F
MIDLAND        FAIR      74  58  58 E10       30.01F
TROY           CLOUDY    83  61  46 N10G20    29.97F
SAGINAW HB     CLOUDY    73  61  64 N10       30.00F
$$
MIZ043>046-050>051-056>058-064>065-071>073-077>080-292100-
SOUTHWEST LOWER MICHIGAN

CITY           SKY/WX    TMP DP  RH WIND       PRES   REMARKS
BATTLE CREEK   PTSUNNY   75  67  76 NE12      29.95F
BENTON HARBOR  CLOUDY    80  68  66 NE7       29.91F
BIG RAPIDS     CLOUDY    77  60  54 E12G18    30.00F
COLDWATER      MOSUNNY   75  67  77 NE10      29.93F
FREMONT        FAIR      75  67  76 E6        29.98F
HOLLAND        SUNNY     78  64  61 E13G23    29.94F
GRAND RAPIDS   PTSUNNY   76  64  66 NE16      29.98F
IONIA          FAIR      72  62  71 NE14G22   29.97F
KALAMAZOO      PTSUNNY   78  66  66 NE8       29.94F
LUDINGTON      CLOUDY    75  65  73 NE5       29.97F
MARSHALL       MOSUNNY   78  67  69 N3        29.94F
MOUNT PLEASANT MOSUNNY   77  58  52 NE13G20   30.00F
MUSKEGON       CLOUDY    76  65  68 E9        29.96F
SOUTH HAVEN    CLOUDY    78  67  69 NE9       29.92F
$$
MIZ016>042-292100-
NORTHERN LOWER MICHIGAN

CITY           SKY/WX    TMP DP  RH WIND       PRES   REMARKS
ALPENA         SUNNY     75  50  41 VRB6      30.07F
BEAVER ISLAND  SUNNY     76  51  42 E7G17     30.07F
BELLAIRE       MOSUNNY   82  51  34 N7G16     30.02F
CADILLAC       CLOUDY    75  58  55 E7        30.03F
CHARLEVOIX     SUNNY     77  56  48 N9        30.07F
FRANKFORT      CLOUDY    76  61  58 N6        30.01S
GAYLORD        PTSUNNY   79  51  37 NE10      30.05F
GRAYLING       MOSUNNY   83  51  33 NE9G18    30.03F
HARBOR SPRINGS SUNNY     77  52  41 E13       30.06S
HOUGHTON LAKE  CLOUDY    75  56  51 E6        30.04F
MANISTEE       CLOUDY    77  61  57 E13       29.99F
OSCODA         CLOUDY    71  56  59 NE14      30.06S
PELLSTON       SUNNY     77  51  40 NE13G21   30.07S
ROGERS CITY    SUNNY     71  54  54 NE6       30.09S
TRAVERSE CITY  MOSUNNY   79  57  46 N10       30.00F
$$
MIZ007>008-015-292100-
EASTERN UPPER MICHIGAN

CITY           SKY/WX    TMP DP  RH WIND       PRES   REMARKS
KINROSS        MOSUNNY   76  51  41 VRB3      30.07F
MACKINAC ISLAN SUNNY     73  49  41 E5        30.07F
NEWBERRY       SUNNY     77  43  29 N7        30.07F
S. S. MARIE    MOSUNNY   77  56  48 W8        30.06F
MUNISING         N/A     71  59  65 NE18      30.08S
$$
MIZ004>006-011>014-085-292100-
CENTRAL UPPER MICHIGAN

CITY           SKY/WX    TMP DP  RH WIND       PRES   REMARKS
MANISTIQUE     SUNNY     74  60  60 S8        30.06F
ESCANABA       SUNNY     73  55  53 SE10      30.05F
MENOMINEE      SUNNY    N/A N/A N/A E15       30.05
SAWYER-GWINN   SUNNY     73  52  46 NE13G23   30.09F
$$
MIZ001>003-009>011-084-292100-
WESTERN UPPER MICHIGAN

CITY           SKY/WX    TMP DP  RH WIND       PRES   REMARKS
IRON MOUNTAIN  CLOUDY    78  53  41 E9        30.05F
HOUGHTON       SUNNY     74  55  51 E10       30.10S
COPPER HARBOR    N/A     73  53  49 VRB3      30.09F
IRONWOOD       SUNNY     72  59  64 N9        30.06F
$$

ABBREVIATIONS USED IN REMARKS
   TC - TEMPERATURE IN CELSIUS
  WCI - WIND CHILL INDEX
   HX - HEAT INDEX
  VSB - VISIBILITY




USA.gov is the U.S. government's official web portal to all federal, state and local government web resources and services.